Meteo Giornale » Osservazioni meteo Italia » Genova-Sestri

ore: 14:50 - Osservazioni Meteo Genova-Sestri
Lat. 44° 25' N Lon. 8° 51' E Alt. 2 metri s.l.m.

poco_nuvoloso Europe/Rome

12 °C

Poco Nuvoloso

Temp. 24 Ore

4 °C

12 °C

Sud/Sud-Est

7.4 Km/h

Dew point 4 °C

Umidità 57 %

Visibilità  10 Km

Il sole sorge alle ore 07:41

Il sole tramonta alle ore 16:47

Data e Ora Cielo e Fenomeni T °C DP °C Um. % Pres. hPa Vis. km Vento km/h
Oggi h: 14:50 poco_nuvoloso Poco Nuvoloso 12 4 57 1005 10 S/SE 7.4
Oggi h: 14:20 sereno Sereno 12 5 62 1005 10 N 5.5
Oggi h: 13:50 poco_nuvoloso Poco Nuvoloso 12 3 54 1005 10 N 5.5
Oggi h: 13:20 poco_nuvoloso Poco Nuvoloso 12 3 54 1005 10 N 5.5
Oggi h: 12:50 poco_nuvoloso Poco Nuvoloso 12 2 50 1005 10 E 7.4
Oggi h: 12:20 poco_nuvoloso Poco Nuvoloso 12 3 54 1006 10 E/NE 9.3
Oggi h: 11:50 poco_nuvoloso Poco Nuvoloso 11 4 61 1006 10 E/NE 13
Oggi h: 11:20 sereno Sereno 10 3 61 1007 10 NE 9.3
Oggi h: 10:50 sereno Sereno 10 2 57 1007 10 N 5.5
Oggi h: 10:20 sereno Sereno 9 2 61 1007 10 N/NE 9.3
Oggi h: 09:50 sereno Sereno 8 2 65 1007 10 NE 18.5
Oggi h: 09:20 sereno Sereno 7 1 65 1006 10 NE 18.5
Oggi h: 08:50 poco_nuvoloso Poco Nuvoloso 6 1 70 1006 10 N/NE 14.8
Oggi h: 08:20 nuvoloso Nuvoloso 6 1 70 1006 10 NE 20.3
Oggi h: 07:50 nuvoloso Nuvoloso 6 1 70 1006 10 N/NE 20.3
Oggi h: 07:20 nuvoloso Nuvoloso 6 1 70 1006 10 NE 22.2
Oggi h: 06:50 nuvoloso Nuvoloso 6 1 70 1006 10 N/NE 16.7
Oggi h: 06:20 nuvoloso Nuvoloso 6 1 70 1006 10 NE 18.5
Oggi h: 05:50 nuvoloso Nuvoloso 6 1 70 1006 10 N/NE 18.5
Oggi h: 04:50 molto_nuvoloso Molto Nuvoloso 5 1 75 1006 10 NE 22.2
Oggi h: 04:20 molto_nuvoloso Molto Nuvoloso 5 1 75 1006 10 NE 27.8
Oggi h: 03:50 molto_nuvoloso Molto Nuvoloso 5 1 75 1007 10 N/NE 27.8
Oggi h: 03:20 molto_nuvoloso Molto Nuvoloso 5 1 75 1007 10 N/NE 25.9
Oggi h: 02:50 nuvoloso Nuvoloso 5 1 75 1007 10 N/NE 33.3
Oggi h: 02:20 nuvoloso Nuvoloso 5 1 75 1007 10 N/NE 29.6
Oggi h: 01:50 nuvoloso Nuvoloso 5 1 75 1007 10 N/NE 31.5
Oggi h: 01:20 poco_nuvoloso Poco Nuvoloso 5 1 75 1007 10 N/NE 29.6
Oggi h: 00:50 sereno Sereno 5 1 75 1007 10 N/NE 31.5
Oggi h: 00:20 sereno Sereno 5 1 75 1007 10 N/NE 31.5
Ieri h: 23:50 sereno Sereno 4 1 80 1008 10 N/NE 31.5
Ieri h: 23:20 sereno Sereno 4 1 80 1008 10 N/NE 33.3
Ieri h: 22:50 poco_nuvoloso Poco Nuvoloso 4 1 80 1008 10 N/NE 31.5
Ieri h: 22:20 poco_nuvoloso Poco Nuvoloso 5 1 75 1008 10 N/NE 33.3
Ieri h: 21:50 poco_nuvoloso Poco Nuvoloso 5 1 75 1008 10 N/NE 29.6
Ieri h: 21:20 nuvoloso Nuvoloso 5 1 75 1008 10 N/NE 27.8
Ieri h: 20:50 nuvoloso Nuvoloso 5 1 75 1008 10 N/NE 24
Ieri h: 20:20 nuvoloso Nuvoloso 5 1 75 1008 10 N/NE 20.3
Ieri h: 19:50 nuvoloso Nuvoloso 6 1 70 1008 10 N/NE 14.8
Ieri h: 19:20 nuvoloso Nuvoloso 6 1 70 1008 10 N 16.7
Ieri h: 18:50 nuvoloso Nuvoloso 6 1 70 1008 10 N/NE 29.6
Ieri h: 18:20 nuvoloso Nuvoloso 5 1 75 1007 10 N/NE 29.6
Ieri h: 17:50 molto_nuvoloso Molto Nuvoloso 5 1 75 1007 10 NE 18.5
Ieri h: 17:20 molto_nuvoloso Molto Nuvoloso 5 1 75 1007 10 N/NE 25.9
Ieri h: 16:50 molto_nuvoloso Molto Nuvoloso 6 1 70 1007 10 N/NE 16.7
Ieri h: 16:20 molto_nuvoloso Molto Nuvoloso 6 2 75 1007 10 N/NE 22.2
Ieri h: 15:50 coperto_pioggia Pioggia Debole 5 2 80 1007 10 N/NE 22.2
Ieri h: 15:20 coperto_pioggia Pioggia Debole 6 2 75 1007 10 N/NE 16.7
Ieri h: 14:50 coperto_pioggia Pioggia Debole 5 2 80 1008 10 N/NE 18.5